Temperature
16 16 16 16 16 15 15 15 15 15 15 15 14 14 14 14 14 14 14 14 14 14 14 14 14 14 14 13 13 13 13 13 13 12 12 12 12 13 13 13 13 13 13
16 16 16 16 16 16 15 15 15 15 15 14 14 14 14 14 14 14 14 14 14 14 14 14 14 13 13 13 13 13 13 13 12 12 12 12 12 12 12 12 12 12 12
16 16 16 16 16 16 15 15 15 15 15 14 14 14 14 14 14 14 14 14 14 14 14 13 13 13 13 13 13 13 12 12 12 12 12 12 12 12 12 12 12 12 12
16 16 16 16 16 16 15 15 15 15 15 14 14 14 14 14 13 13 13 13 13 13 13 13 13 13 13 13 13 12 12 12 12 12 12 12 12 12 12 12 12 12 12
16 16 16 16 15 15 15 15 15 15 15 14 14 14 14 13 13 13 13 13 13 13 13 13 13 13 12 12 12 12 12 12 12 11 11 11 11 11 11 11 11 11 11
16 16 16 15 15 15 15 15 15 15 14 14 14 14 14 13 13 13 13 13 13 13 13 12 12 12 12 12 12 12 11 11 11 11 11 11 11 10 10 10 10 11 11
16 16 16 15 15 15 15 15 15 15 14 14 14 14 13 13 13 13 12 12 12 12 12 12 12 12 12 12 11 11 11 11 11 11 11 10 10 10 10 10 10 10 10
16 16 16 15 15 15 15 15 15 14 14 14 14 13 13 13 13 12 12 12 12 12 12 12 12 11 11 11 11 11 11 11 10 10 10 10 10 10 9 9 9 9 9
16 16 16 15 15 15 15 15 15 14 14 14 13 13 13 13 12 12 12 12 12 12 11 11 11 11 11 11 11 11 11 10 10 10 10 9 9 9 9 9 9 9 9
16 16 16 16 15 15 15 15 14 14 14 13 13 13 13 13 12 12 12 12 12 11 11 11 11 11 11 10 10 10 10 10 10 9 9 9 9 9 9 9 9 9 9
16 16 16 15 15 15 15 14 14 14 13 13 13 13 12 12 12 12 12 11 11 11 11 11 11 10 10 10 10 10 10 9 9 9 9 9 9 9 9 8 8 8 8
15 15 15 15 15 14 14 14 14 13 13 13 13 12 12 12 12 12 11 11 11 11 11 11 10 10 10 10 10 10 9 9 9 9 9 9 8 8 8 8 8 8 8
15 15 15 15 14 14 14 14 13 13 13 13 12 12 12 12 12 11 11 11 11 10 10 10 10 10 10 10 9 9 9 9 9 8 8 8 8 8 8 8 8 8 7
15 15 14 14 14 14 14 13 13 13 13 12 12 12 12 12 11 11 11 11 10 10 10 10 10 9 9 9 9 9 8 8 8 8 8 8 7 7 7 7 7 7 7
15 15 14 14 14 14 13 13 13 13 13 13 12 12 12 12 11 11 11 10 10 10 10 9 9 9 9 9 9 8 8 8 8 8 7 7 7 7 7 7 7 7 6
14 14 14 14 14 13 13 13 13 12 12 12 12 11 11 11 11 10 10 10 10 9 9 9 9 9 9 8 8 8 8 8 7 7 7 7 7 6 6 6 6 6 6
14 14 14 13 13 13 13 13 13 12 12 11 11 11 11 11 10 10 10 9 9 9 9 9 9 8 8 8 8 8 7 7 7 7 7 6 6 6 6 6 6 5 5
14 13 13 13 13 13 13 13 12 12 12 11 11 11 10 10 10 10 9 9 9 9 8 8 8 8 8 8 7 7 7 7 6 6 6 6 6 6 6 5 5 5 5
13 13 13 13 13 12 12 12 12 11 11 11 11 10 10 10 9 9 9 9 9 8 8 8 8 8 7 7 7 7 6 6 6 6 6 6 5 5 5 5 5 4 4
13 13 13 12 12 12 12 11 11 11 11 10 10 10 10 9 9 9 9 8 8 8 8 8 7 7 7 7 6 6 6 6 6 6 5 5 5 5 5 4 4 4 4
13 12 12 12 12 11 11 11 11 10 10 10 10 9 9 9 9 8 8 8 8 8 7 7 7 7 6 6 6 6 6 5 5 5 5 5 5 4 4 4 4 3 3
12 12 11 11 11 11 11 10 10 10 10 9 9 9 8 8 8 8 8 7 7 7 7 6 6 6 6 5 5 5 5 5 5 4 4 4 4 4 4 3 3 3 3
11 11 11 11 10 10 10 10 9 9 9 9 8 8 8 8 7 7 7 7 7 6 6 6 5 5 5 5 5 5 4 4 4 4 4 4 4 3 3 3 3 2 2
11 11 10 10 10 10 9 9 9 9 8 8 8 7 7 7 7 7 6 6 6 5 5 5 5 5 4 4 4 4 4 4 4 3 3 3 3 3 2 2 2 2 2
10 10 10 10 9 9 9 9 8 8 8 8 7 7 7 6 6 6 6 5 5 5 5 4 4 4 4 4 4 3 3 3 3 3 3 2 2 2 2 2 2 1 1
10 10 9 9 9 9 8 8 8 8 7 7 7 6 6 6 5 5 5 5 4 4 4 4 4 3 3 3 3 3 3 3 3 2 2 2 2 1 1 1 1 1 0
Wind_Speed
7 6 6 5 5 4 4 4 4 3 4 4 4 5 5 5 5 5 5 5 6 5 4 5 4 3 3 3 3 3 3 2 2 2 2 3 5 6 9 11 11 11 11
8 7 6 5 5 5 4 4 4 4 4 4 5 5 4 4 4 5 5 5 5 4 4 4 4 3 4 3 3 3 3 2 2 1 3 4 4 5 6 7 9 10 10
8 7 7 6 6 5 5 5 5 5 5 5 5 5 4 4 4 4 4 4 4 3 3 3 2 3 3 3 3 3 2 3 2 2 2 2 3 4 5 5 6 7 9
8 8 7 6 6 6 5 5 5 5 5 5 4 4 4 4 4 4 4 4 4 3 3 2 2 2 2 2 3 3 3 4 3 2 2 2 3 3 3 4 5 5 5
9 8 7 6 6 6 5 5 5 4 5 4 4 4 4 3 3 4 4 4 4 4 3 3 2 3 3 3 3 2 3 3 3 2 2 2 3 3 4 3 4 4 4
10 9 8 7 7 6 6 6 5 5 4 4 4 4 4 3 5 7 6 4 4 4 3 3 3 4 5 6 5 5 4 3 2 1 1 1 2 2 2 3 3 4 4
9 8 8 8 8 7 7 6 6 5 5 5 4 4 4 3 6 7 7 5 4 3 2 2 3 4 5 3 5 6 5 4 3 2 1 1 2 2 2 2 2 2 3
9 8 8 8 8 7 7 6 5 5 5 4 4 4 4 4 6 7 8 6 4 2 2 2 2 2 2 3 3 4 3 3 3 2 1 1 2 2 1 1 2 2 3
9 9 10 10 9 9 8 7 5 5 5 4 4 4 4 3 6 7 8 4 3 2 1 2 2 1 3 4 4 3 3 3 5 5 4 4 5 5 3 2 2 2 3
10 9 9 10 10 10 9 7 5 5 5 5 4 3 4 3 5 7 7 4 3 1 1 1 1 2 2 3 3 3 1 2 2 4 5 6 6 6 6 2 0 1 2
8 8 8 9 9 9 7 6 7 6 6 4 4 2 2 3 5 6 6 4 4 2 1 0 1 1 2 2 2 2 1 0 1 2 2 3 4 4 5 4 2 0 1
9 9 8 8 8 8 8 7 7 7 7 5 4 2 1 1 3 4 6 5 5 4 2 2 1 1 2 1 1 2 2 2 2 2 2 3 3 4 4 5 5 3 3
9 8 7 7 7 8 9 8 7 6 6 5 4 3 2 1 2 4 5 5 6 3 2 3 2 2 1 1 1 2 2 1 1 1 2 3 3 4 4 4 5 5 5
10 8 7 7 7 6 6 7 7 7 6 5 5 4 3 2 2 2 2 2 3 2 1 2 2 2 2 1 2 2 1 0 0 1 2 3 3 3 3 3 3 4 4
9 8 7 7 7 6 5 5 7 7 8 7 6 6 6 5 6 7 5 4 3 3 3 2 1 1 1 1 1 1 1 1 1 2 2 3 3 3 3 3 2 3 3
8 7 6 6 5 5 5 3 1 3 5 6 7 6 5 6 6 7 6 6 6 6 4 2 1 1 2 2 2 2 2 2 2 2 3 3 3 4 4 4 3 3 4
9 8 6 6 6 6 6 5 3 1 2 3 5 6 5 5 6 7 6 6 6 6 3 2 3 3 3 3 3 3 3 3 3 3 3 4 4 4 4 4 4 4 5
8 8 7 6 6 6 6 5 5 5 3 1 1 3 4 5 5 5 6 5 2 2 2 3 3 3 3 3 3 3 3 3 3 3 4 4 4 4 5 5 5 6 6
7 6 6 5 5 5 5 5 4 4 4 2 1 0 2 3 3 4 6 3 3 3 3 3 3 3 3 3 3 3 3 3 4 3 4 4 4 4 5 6 6 8 7
5 8 8 6 5 5 4 5 4 4 3 3 3 2 2 2 1 2 2 2 3 3 3 4 3 4 4 3 3 3 3 4 4 4 5 5 5 5 6 7 7 7 7
5 6 8 6 5 5 5 5 5 4 4 4 3 3 4 4 4 4 3 3 3 4 3 3 3 3 3 3 3 3 4 4 4 4 5 5 5 5 6 6 7 7 7
5 5 5 5 5 5 5 4 4 4 4 4 2 2 4 3 3 3 4 4 4 4 4 4 3 3 4 4 3 3 4 4 5 5 5 5 5 6 6 6 7 6 6
6 6 5 5 5 5 5 4 4 4 4 4 3 3 3 3 3 3 4 3 3 4 4 5 4 4 5 6 6 5 4 5 5 5 5 6 6 6 6 7 8 7 7
5 6 6 5 5 5 5 4 4 4 4 4 4 4 4 4 4 4 3 3 3 4 4 5 5 6 6 6 6 7 8 9 8 7 7 6 7 6 6 7 7 8 8
5 5 5 5 5 5 5 5 5 5 4 4 4 4 3 3 3 3 2 3 3 3 4 5 6 6 7 7 7 8 9 10 9 8 7 6 6 7 7 8 8 8 8
4 5 5 4 4 4 4 5 5 4 4 4 4 3 3 3 3 3 2 3 3 3 4 5 6 7 8 8 9 10 11 11 11 10 8 6 6 6 7 7 9 8 9
Wind_Direction
163 159 152 154 153 146 144 147 139 126 118 114 108 100 96 90 88 90 84 80 80 66 58 70 58 51 55 47 56 61 62 87 110 333 332 335 356 7 8 15 23 26 25
164 158 157 153 147 146 149 148 138 131 121 117 113 107 105 100 97 101 99 89 89 79 64 66 53 60 56 49 59 62 61 67 110 43 346 350 353 353 359 6 16 22 24
158 155 153 152 152 152 149 144 138 132 124 115 118 120 118 114 110 108 107 101 94 87 79 80 64 73 62 55 63 66 62 63 73 94 354 344 342 350 356 2 8 13 19
160 158 158 162 159 153 146 141 139 135 132 130 129 127 123 117 117 114 108 103 95 80 72 79 77 90 104 93 78 77 80 73 68 69 24 353 342 336 359 2 359 357 1
162 163 166 157 148 141 138 137 134 132 132 132 126 118 116 123 132 126 117 110 103 83 59 51 64 76 86 94 98 108 98 85 73 60 26 0 350 352 353 343 350 338 346
168 169 160 152 147 146 144 140 132 125 121 122 129 129 127 132 136 132 123 112 106 99 81 51 50 52 62 65 77 92 101 106 106 90 28 350 320 314 324 343 347 357 342
168 165 160 156 152 154 150 143 142 139 131 129 132 128 127 134 136 132 126 117 109 103 97 79 67 57 54 60 63 63 56 60 91 134 147 263 279 283 314 339 342 340 308
166 166 163 159 157 153 149 152 148 141 139 139 140 140 134 140 138 133 125 110 102 90 85 97 98 62 65 83 82 64 44 31 41 63 156 276 295 290 250 271 276 306 300
171 173 171 166 161 159 160 159 153 144 139 140 142 143 142 149 147 142 128 116 103 79 61 80 106 96 78 87 93 82 41 9 33 43 37 20 7 8 23 43 4 358 332
181 177 170 166 165 167 167 160 152 148 146 141 134 145 151 162 158 150 139 132 124 104 45 26 68 113 102 94 104 112 86 329 359 20 21 16 16 14 15 23 328 333 311
168 160 159 162 165 163 155 152 147 142 136 136 136 140 164 183 170 162 156 149 158 154 153 313 305 136 111 103 107 143 184 157 36 24 4 355 0 3 359 355 350 263 277
151 154 158 157 158 154 147 147 146 145 143 147 146 153 201 208 179 180 176 173 165 159 187 223 232 141 113 96 94 103 85 67 66 35 8 346 339 331 328 335 332 320 284
146 152 153 152 150 151 152 153 150 151 156 166 168 179 207 227 212 194 187 181 174 170 193 186 162 126 103 71 62 66 56 68 66 23 322 306 298 299 320 331 335 329 320
150 152 151 151 148 149 154 159 160 167 171 176 181 188 198 208 211 191 175 170 170 167 159 129 100 86 80 66 33 21 22 178 177 249 280 288 299 313 319 318 320 324 324
150 151 153 153 155 156 160 172 177 187 184 183 191 186 185 206 218 193 174 183 185 181 146 93 65 44 21 352 347 336 323 329 296 280 283 302 312 315 311 313 311 317 312
149 154 156 156 157 157 154 137 156 180 190 189 185 180 198 203 191 187 190 192 185 165 134 147 201 221 237 252 267 284 279 271 270 275 281 284 291 297 302 306 303 299 297
157 159 158 158 160 162 162 160 155 97 129 167 178 184 188 186 183 185 184 177 174 158 150 195 218 227 239 243 245 247 257 263 260 264 271 278 282 287 293 297 297 294 292
156 158 159 165 166 167 169 169 167 163 163 186 201 191 186 184 180 176 160 135 144 162 191 212 228 234 237 241 246 252 262 273 273 269 270 275 277 281 287 288 288 286 289
156 159 159 156 157 160 160 157 158 163 165 163 118 172 187 166 155 156 147 149 181 205 217 225 231 234 237 240 246 250 253 261 267 269 271 272 274 275 279 282 283 286 286
155 152 150 150 149 148 151 154 159 164 167 171 183 190 163 124 142 175 180 181 191 211 220 228 235 238 239 242 247 251 258 265 270 270 273 275 274 273 277 282 284 285 284
146 152 146 144 152 158 161 167 170 171 177 187 204 199 172 176 191 198 204 208 211 219 225 230 235 240 242 245 248 253 258 267 269 271 275 278 279 281 280 280 283 282 282
147 152 156 158 158 159 163 166 166 171 178 181 188 186 182 176 192 203 213 221 224 223 220 218 227 234 230 234 239 249 261 270 274 276 280 282 282 283 284 285 287 283 283
148 151 151 151 155 155 153 157 164 171 177 182 183 182 188 199 204 211 219 223 221 225 225 219 226 241 243 244 240 233 249 263 269 272 279 284 285 283 282 283 284 282 282
153 156 158 158 156 160 167 173 177 180 181 185 190 197 202 207 213 222 227 228 226 233 231 229 232 241 249 255 258 258 259 267 273 268 267 278 283 285 285 285 285 280 279
155 161 163 166 170 173 176 180 183 185 186 190 195 201 204 207 214 225 229 228 229 236 241 243 246 250 254 258 263 269 277 282 284 282 273 271 282 285 286 287 288 287 280
154 160 164 167 171 173 177 183 186 187 191 195 198 202 206 210 217 225 227 226 234 242 248 250 254 258 265 267 269 277 283 286 288 288 284 274 282 285 289 289 290 289 286
Height
1553 1555 1557 1559 1561 1563 1564 1565 1566 1566 1567 1567 1568 1568 1568 1568 1568 1568 1568 1568 1567 1567 1567 1567 1567 1567 1566 1566 1566 1565 1565 1564 1563 1563 1562 1561 1560 1558 1556 1555 1553 1552 1550
1551 1554 1556 1559 1561 1562 1563 1564 1565 1566 1567 1568 1568 1568 1568 1568 1568 1568 1568 1568 1568 1568 1568 1567 1567 1567 1567 1566 1566 1565 1565 1564 1564 1562 1561 1560 1559 1558 1556 1554 1553 1552 1550
1550 1553 1555 1557 1559 1561 1563 1564 1565 1566 1567 1567 1568 1568 1568 1568 1569 1569 1569 1568 1568 1568 1568 1568 1567 1567 1567 1566 1566 1565 1565 1564 1563 1562 1561 1560 1559 1557 1556 1554 1553 1551 1549
1548 1551 1553 1556 1558 1560 1562 1563 1564 1565 1566 1567 1568 1568 1568 1569 1569 1569 1569 1568 1568 1568 1568 1568 1567 1567 1567 1566 1566 1565 1565 1564 1563 1562 1561 1559 1558 1557 1555 1553 1552 1551 1549
1546 1549 1552 1555 1557 1559 1561 1562 1563 1564 1565 1566 1567 1568 1568 1568 1569 1569 1569 1568 1568 1568 1568 1567 1567 1567 1566 1566 1566 1565 1564 1564 1563 1562 1560 1559 1557 1556 1554 1553 1551 1550 1548
1543 1547 1550 1553 1555 1557 1559 1561 1562 1563 1564 1565 1566 1567 1567 1568 1568 1568 1568 1568 1568 1568 1567 1567 1567 1566 1566 1566 1565 1565 1564 1563 1562 1561 1560 1558 1557 1556 1554 1553 1551 1549 1547
1541 1544 1547 1550 1553 1556 1558 1559 1561 1562 1563 1564 1566 1566 1567 1567 1568 1568 1568 1568 1568 1567 1567 1567 1566 1566 1566 1565 1565 1564 1564 1563 1562 1561 1559 1558 1557 1555 1554 1552 1550 1549 1547
1538 1542 1545 1548 1551 1554 1556 1558 1559 1561 1562 1563 1564 1565 1566 1566 1567 1567 1567 1567 1567 1566 1566 1566 1565 1565 1565 1564 1564 1563 1563 1562 1561 1559 1558 1557 1556 1554 1553 1552 1550 1548 1546
1535 1539 1542 1546 1549 1551 1553 1555 1557 1559 1560 1562 1563 1564 1564 1565 1565 1566 1566 1566 1566 1566 1566 1565 1565 1564 1564 1563 1563 1562 1561 1561 1560 1559 1558 1556 1555 1553 1552 1550 1548 1546 1544
1532 1536 1540 1543 1546 1549 1551 1553 1555 1557 1558 1560 1561 1562 1563 1563 1564 1564 1565 1565 1565 1565 1565 1564 1564 1563 1563 1562 1562 1561 1560 1559 1558 1557 1556 1555 1553 1552 1550 1548 1547 1544 1542
1530 1534 1537 1540 1543 1546 1549 1551 1553 1555 1556 1558 1559 1560 1561 1562 1562 1563 1563 1564 1564 1564 1563 1563 1563 1562 1562 1561 1560 1560 1559 1558 1556 1555 1554 1553 1551 1550 1548 1546 1545 1543 1541
1527 1531 1534 1538 1541 1544 1546 1548 1551 1552 1554 1556 1557 1558 1559 1560 1561 1561 1562 1562 1562 1562 1562 1562 1561 1561 1560 1560 1559 1558 1557 1556 1555 1553 1552 1550 1549 1547 1546 1544 1543 1541 1539
1525 1528 1532 1535 1538 1541 1543 1546 1548 1550 1552 1553 1554 1556 1557 1558 1559 1559 1560 1560 1560 1560 1560 1560 1560 1559 1559 1558 1557 1556 1555 1554 1552 1551 1549 1548 1546 1545 1543 1541 1540 1538 1536
1523 1526 1530 1533 1535 1538 1541 1543 1545 1547 1548 1550 1552 1553 1554 1555 1556 1557 1557 1557 1557 1557 1557 1557 1557 1557 1556 1555 1555 1553 1552 1551 1550 1548 1547 1545 1544 1542 1540 1538 1536 1533 1531
1521 1524 1527 1530 1533 1535 1538 1540 1542 1544 1546 1548 1549 1550 1551 1552 1553 1554 1554 1555 1555 1555 1555 1554 1554 1554 1553 1552 1552 1551 1549 1548 1547 1546 1544 1542 1540 1538 1536 1535 1532 1530 1527
1519 1522 1525 1527 1530 1532 1535 1537 1540 1542 1544 1545 1546 1548 1548 1550 1550 1551 1551 1552 1552 1552 1552 1551 1551 1550 1550 1549 1548 1547 1546 1545 1544 1542 1541 1539 1537 1535 1532 1531 1528 1526 1523
1517 1520 1522 1525 1527 1529 1532 1534 1536 1539 1540 1542 1543 1544 1546 1546 1547 1548 1548 1549 1549 1549 1548 1548 1548 1547 1546 1546 1545 1544 1543 1542 1540 1539 1537 1535 1533 1531 1528 1526 1524 1521 1518
1515 1518 1520 1522 1525 1527 1529 1531 1533 1535 1537 1538 1540 1541 1542 1543 1544 1544 1545 1545 1545 1545 1545 1544 1544 1543 1543 1542 1541 1540 1539 1538 1536 1535 1533 1531 1529 1526 1524 1521 1519 1516 1513
1513 1515 1518 1520 1522 1524 1526 1529 1530 1532 1534 1535 1536 1538 1539 1539 1540 1541 1541 1541 1540 1541 1541 1541 1540 1540 1539 1538 1537 1536 1535 1533 1532 1530 1528 1526 1524 1521 1518 1516 1513 1511 1508
1511 1513 1515 1517 1519 1521 1523 1525 1527 1529 1530 1532 1533 1534 1535 1535 1535 1536 1536 1537 1537 1537 1537 1537 1537 1536 1535 1534 1533 1532 1530 1529 1527 1525 1523 1521 1518 1516 1513 1510 1507 1505 1502
1508 1510 1513 1515 1517 1519 1520 1522 1524 1525 1527 1528 1529 1530 1531 1531 1532 1532 1533 1533 1533 1533 1533 1533 1532 1532 1531 1530 1528 1527 1526 1524 1522 1520 1518 1515 1513 1510 1507 1504 1502 1499 1496
1506 1508 1510 1512 1514 1516 1518 1519 1521 1522 1523 1524 1525 1526 1527 1528 1528 1528 1529 1529 1529 1529 1529 1529 1528 1527 1526 1525 1524 1522 1521 1519 1517 1515 1512 1510 1507 1504 1502 1499 1496 1493 1490
1503 1505 1507 1509 1511 1513 1514 1516 1517 1518 1519 1520 1521 1522 1522 1523 1523 1524 1524 1525 1525 1525 1525 1524 1523 1522 1522 1520 1519 1518 1516 1514 1512 1509 1507 1504 1501 1498 1496 1493 1490 1487 1484
1501 1502 1504 1506 1508 1509 1511 1512 1513 1515 1516 1516 1517 1518 1518 1519 1519 1520 1520 1520 1520 1520 1520 1519 1518 1517 1516 1515 1514 1512 1511 1508 1506 1504 1501 1498 1495 1492 1489 1486 1483 1481 1478
1498 1499 1501 1502 1504 1506 1507 1508 1509 1510 1511 1512 1513 1514 1514 1515 1515 1515 1515 1515 1515 1515 1514 1514 1513 1512 1511 1509 1508 1506 1505 1502 1500 1498 1495 1492 1489 1486 1483 1480 1477 1474 1472
1495 1496 1498 1499 1500 1502 1503 1504 1505 1506 1507 1508 1509 1509 1509 1510 1510 1510 1510 1510 1510 1509 1509 1508 1507 1506 1505 1503 1502 1500 1498 1496 1494 1491 1489 1485 1482 1480 1477 1474 1471 1468 1465